Погода в Гапкине

Россия / Ростовская область     47°43′03″N   41°25′07″E
темп.,
°C
ветер,
м/с
пор.,
м/с
влажн.,
%
обл.,
%
осадки,
мм/ч
давл.,
гПа
погр.,
м
17 мая, пн
пн1700:00+20вюв71843100 0.0 1007426
03:00+19в71841100 0.0 1007433
06:00+17в616595 0.0 1007394
09:00+22юв71449100 0.0 1007837
12:00+26юв810430 0.0 10071320
15:00+29юв611374 0.0 10062035
18:00+27зюз23595 0.0 100678
21:00+20с467127 0.0 100770
18 мая, вт
вт1800:00+17ю2270100 0.0 100721
03:00+17зсз51083100 0.0 1008299
06:00+17з6108999 0.0 1009517
09:00+19зсз577170 0.0 1009629
12:00+21зюз5567100 0.0 1009975
15:00+17зюз2492100 1.8 1010180
18:00+19юз1181100 0.8 1010135
21:00+16зсз3383100 0.8 101039
19 мая, ср
ср1900:00+15з2284100 0.0 101017
03:00+14юв01855 0.0 101011
06:00+15в228399 0.0 100963
09:00+20ююв226785 0.0 1009556
12:00+18зюз101181100 2.0 1010836
15:00+14юз4995100 4.3 1012483
18:00+16юз5985100 0.9 1011570
21:00+13юз4119183 1.1 1012281
20 мая, чт
чт2000:00+13юз4129299 0.0 1012590
03:00+12ююз6139476 0.0 1013505
06:00+12юз6129396 0.0 1013615
09:00+15юз7108058 0.1 1014831
12:00+19юз6864100 0.5 10141494
15:00+20юз565886 0.7 10151646
18:00+20ююз12676 0.1 1015192
21:00+16в3375100 0.1 101530
21 мая, пт
пт2100:00+14вюв338151 0.0 101523
03:00+13в4680100 0.0 101480
06:00+15в41182100 0.0 1015280
09:00+20вюв6106386 0.0 1014520
12:00+24юв785095 0.0 10131083
15:00+26юв574596 0.0 10131301
18:00+24в48595 0.0 1012247
21:00+19в4106867 0.0 1013139